{"data":{"norad_id":66024,"intl_designator":"2025-232V","name":"STARLINK-35410","alt_names":[],"object_type":"PAYLOAD","status":"ACTIVE","operator":null,"country":"US","launch_date":"2025-10-16","launch_site_code":"AFETR","launch_vehicle":null,"mission":null,"orbit_class":"UNKNOWN","rcs_meters":null,"size_class":null,"mass_kg":null,"dimensions":null,"purposes":["comms"],"wikipedia_slug":null,"has_3d_model":false,"image_url":null,"decayed_at":null,"tle_current":{"epoch":"2026-05-25T04:39:12.699936Z","epoch_age_seconds":58329,"freshness":"FRESH","line1":"1 66024U 25232V   26145.19389699  .00016976  00000+0  58403-3 0  9995","line2":"2 66024  53.1549 108.1962 0000973  54.9913 305.1179 15.30196866 35159","mean_motion":15.30196866,"eccentricity":9.73e-5,"inclination_deg":53.1549,"raan_deg":108.1962,"arg_perigee_deg":54.9913,"mean_anomaly_deg":305.1179,"bstar":0.00058403,"rev_number":3515,"period_min":94.105538443836,"perigee_km":474.55759492754,"apogee_km":475.89125906123,"semimajor_km":6853.3614269944,"source":"CELESTRAK","updated_at":"2026-05-25T13:38:21.017598Z"}}}